Regional Weather Roundup
Issued by NWS

Home | Current Version | Previous Version | Text Only | Print | Product List | Glossary Off
Versions: 1 2 3 4 5 6 7 8 9 10 11 12 13 14 15 16 17 18 19 20 21 22 23 24 25 26 27 28 29 30 31 32 33 34 35 36 37 38 39 40 41 42 43 44 45 46 47 48 49 50

000
ASUS43 KDTX 270210
RWRMI
MICHIGAN HOURLY REGIONAL WEATHER ROUNDUP
NATIONAL WEATHER SERVICE DETROIT/PONTIAC MI
900 PM EST WED NOV 26 2014

NOTE: "FAIR" INDICATES FEW OR NO CLOUDS BELOW 12,000 FEET WITH NO
SIGNIFICANT WEATHER AND/OR OBSTRUCTION TO VISIBILITY.

MIZ047>049-052>055-059>063-066>070-074>076-081>083-270300-
SOUTHEAST LOWER MICHIGAN

CITY           SKY/WX    TMP DP  RH WIND       PRES   REMARKS
ADRIAN         CLOUDY    31  24  75 N6        30.08S WCI  25
ALMA           CLOUDY    28  24  84 N3        30.11F
ANN ARBOR      CLOUDY    31  23  72 N8        30.07S WCI  23
BAD AXE        CLOUDY    29  28  95 N7        30.09F WCI  22
CARO           CLOUDY    30  25  80 N5        30.09F WCI  25
DETROIT CITY   CLOUDY    34  23  64 N7        30.08S WCI  28
DETROIT        CLOUDY    33  24  69 N7        30.08F WCI  27
FLINT          CLOUDY    31  23  72 N6        30.10R WCI  25
GROSSE ILE     CLOUDY    34  27  75 N3        30.06S
HILLSDALE      CLOUDY    29  26  87 N3        30.06S
HOWELL         CLOUDY    29  24  83 CALM      30.08S

CITY           SKY/WX    TMP DP  RH WIND       PRES   REMARKS
JACKSON        CLOUDY    29  22  75 N5        30.08R WCI  24
LAMBERTVILLE   CLOUDY    32  28  86 N3        30.07F
LANSING        CLOUDY    29  22  75 N6        30.10S WCI  23
LAPEER         CLOUDY    29  24  80 N5        30.08S WCI  24
MASON          CLOUDY    29  24  79 N5        30.09R WCI  24
MONROE         CLOUDY    32  27  80 CALM      30.06S
MT. CLEMENS    CLOUDY    31  26  80 N10       30.06S WCI  23
PONTIAC        FLURRIES  29  22  75 N5        30.06S WCI  24
PORT HOPE        N/A     32  27  81 NW7       30.08F WCI  26
PORT HURON     CLOUDY    30  25  80 NW5       30.08S WCI  25
TRI CITIES     CLOUDY    30  23  75 N6        30.12S WCI  24
TROY           CLOUDY    33  24  69 N9        30.09S WCI  25
SAGINAW HB     CLOUDY    30  27  86 N5        30.11R WCI  25
$$
MIZ043>046-050>051-056>058-064>065-071>073-077>080-270300-
SOUTHWEST LOWER MICHIGAN

CITY           SKY/WX    TMP DP  RH WIND       PRES   REMARKS
BATTLE CREEK   CLOUDY    29  22  75 N3        30.10R
BENTON HARBOR  CLOUDY    25  22  88 CALM      30.13R
BIG RAPIDS     CLOUDY    28  26  93 CALM      30.11S
COLDWATER      CLOUDY    29  26  86 N5        30.09S WCI  24
FREMONT        CLOUDY    28  25  90 CALM      30.12S
HOLLAND        CLOUDY    31  22  69 CALM      30.13S
GRAND RAPIDS   CLOUDY    29  21  72 N5        30.12R WCI  24
IONIA          CLOUDY    30  23  75 N8        30.10S WCI  22
KALAMAZOO      CLOUDY    29  21  72 N3        30.11R
LUDINGTON      LGT SNOW  29  28  95 CALM      30.14S
MARSHALL       CLOUDY    28  23  84 CALM      30.09S
MOUNT PLEASANT CLOUDY    28  23  81 CALM      30.11S
MUSKEGON       CLOUDY    30  22  72 E3        30.13F
SOUTH HAVEN    CLOUDY    28  26  89 CALM      30.13R
$$
MIZ016>042-270300-
NORTHERN LOWER MICHIGAN

CITY           SKY/WX    TMP DP  RH WIND       PRES   REMARKS
ALPENA         CLOUDY    26  21  81 NW6       30.11F WCI  19
BEAVER ISLAND  MOCLDY    28  23  81 NW3       30.13S
BELLAIRE       CLOUDY    27  26  94 CALM      30.14S
CADILLAC       LGT SNOW  25  23  92 CALM      30.09S
CHARLEVOIX     CLOUDY    26  24  91 CALM      30.15S
FRANKFORT      CLOUDY    26  25  96 CALM      30.14S
GAYLORD        CLOUDY    24  20  84 CALM      30.08F
GRAYLING       CLOUDY    24  23  96 W5        30.10F WCI  18
HARBOR SPRINGS CLOUDY    26  24  89 CALM      30.12F
HOUGHTON LAKE  CLOUDY    24  22  91 CALM      30.09F
MANISTEE       CLOUDY    28  25  86 CALM      30.14S
OSCODA         CLOUDY    26  24  93 N6        30.10F WCI  19
PELLSTON       CLOUDY    26  22  84 CALM      30.12F
ROGERS CITY    CLOUDY    26  25  94 CALM      30.13F
TRAVERSE CITY  FLURRIES  28  24  85 CALM      30.13S
$$
MIZ007>008-015-270300-
EASTERN UPPER MICHIGAN

CITY           SKY/WX    TMP DP  RH WIND       PRES   REMARKS
KINROSS        CLOUDY    25  25 100 CALM      30.12F
MACKINAC ISLAN CLOUDY    28  23  81 NW7       30.10F WCI  21
NEWBERRY       CLOUDY    21  21 100 CALM      30.12S
S. S. MARIE    CLOUDY    26  22  84 E5        30.11F WCI  20
MUNISING         N/A     23  17  78 CALM      30.13F
$$
MIZ004>006-011>014-085-270300-
CENTRAL UPPER MICHIGAN

CITY           SKY/WX    TMP DP  RH WIND       PRES   REMARKS
MANISTIQUE     MOCLDY    19  18  93 NW3       30.13S
ESCANABA       CLOUDY    19  16  86 W3        30.14F
MENOMINEE      CLOUDY    21  18  86 W3        30.15F
SAWYER-GWINN   CLOUDY    21  18  86 NW6       30.11S WCI  14
$$
MIZ001>003-009>011-084-270300-
WESTERN UPPER MICHIGAN

CITY           SKY/WX    TMP DP  RH WIND       PRES   REMARKS
IRON MOUNTAIN  CLOUDY    23  18  81 NW10      30.12S WCI  12
HOUGHTON       LGT SNOW  17  11  77 N16       30.19S WCI   2
COPPER HARBOR    N/A     22  17  81 NE20G28   30.21S WCI   7
IRONWOOD       CLOUDY    19  18  93 N12G17    30.19S VSB 3/4 WCI   7
$$

ABBREVIATIONS USED IN REMARKS
   TC - TEMPERATURE IN CELSIUS
  WCI - WIND CHILL INDEX
   HX - HEAT INDEX
  VSB - VISIBILITY



USA.gov is the U.S. government's official web portal to all federal, state and local government web resources and services.